Heber City, UT

5:05 PM MST on January 23, 2017 (GMT -0700)
Heber

Weather History for K36U - March, 2014

Change the Weather History Date:

Monday, March 24, 2014

  Actual Average (KPVU) Record (KPVU)
Temperature  
Mean Temperature 38 °F -  
Max Temperature 59 °F 54 °F 71 °F (2004)
Min Temperature 17 °F 32 °F 19 °F (2013)
Degree Days  
Heating Degree Days 27    
Moisture  
Dew Point 14 °F    
Average Humidity 45    
Maximum Humidity 80    
Minimum Humidity 16    
Precipitation  
Precipitation 0.00 in - - ()
Sea Level Pressure  
Sea Level Pressure 30.23 in    
Wind  
Wind Speed 2 mph (SSE)    
Max Wind Speed 16 mph    
Max Gust Speed 24 mph    
Visibility 10 miles    
Events Thunderstorm    
Averages and records for this station are not official NWS values.
T = Trace of Precipitation, MM = Missing Value Source: NWS Daily Summary

Daily Weather History Graph

Daily Weather History Graph

Search for Another Location

Airport or City:

Trip Planner

Search our weather history database for the weather conditions in past years. The results will help you decide how hot, cold, wet, or windy it might be!

Date:

Astronomy

Mar. 24, 2014 Rise Set
Actual Time 7:22 AM MDT 7:42 PM MDT
Civil Twilight 6:55 AM MDT 8:09 PM MDT
Nautical Twilight 6:23 AM MDT 8:41 PM MDT
Astronomical Twilight 5:50 AM MDT 9:14 PM MDT
Moon 2:56 AM MDT 1:10 PM MDT
Length of Visible Light 13h 14m
Length of Day
12h 19m
Last Quarter, 42% of the Moon is Illuminated
Mar 24
Last Quarter
Mar 30
New
Apr 7
First Quarter
Apr 15
Full
Apr 22
Last Quarter

Hourly Weather History & Observations

Time (MDT) Temp. Windchill Dew Point Humidity Pressure Visibility Wind Dir Wind Speed Gust Speed Precip Events Conditions
12:15 AM 23.0 °F - 12.2 °F 63% 30.18 in 10.0 mi Calm Calm - N/A   Clear
12:35 AM 26.6 °F - 12.2 °F 55% 30.18 in 10.0 mi Calm Calm - N/A Thunderstorm Clear
12:55 AM 28.4 °F 24.6 °F 12.2 °F 51% 30.19 in 10.0 mi SSE 3.5 mph - N/A   Clear
1:15 AM 24.8 °F 20.5 °F 12.2 °F 59% 30.19 in 10.0 mi ESE 3.5 mph - N/A   Clear
1:35 AM 26.6 °F 20.0 °F 12.2 °F 55% 30.19 in 10.0 mi East 5.8 mph - N/A   Clear
1:55 AM 26.6 °F 22.6 °F 12.2 °F 55% 30.20 in 10.0 mi East 3.5 mph - N/A   Clear
2:15 AM 23.0 °F - 12.2 °F 63% 30.20 in 10.0 mi Calm Calm - N/A   Clear
2:35 AM 24.8 °F - 12.2 °F 59% 30.20 in 10.0 mi Calm Calm - N/A   Clear
2:55 AM 23.0 °F - 12.2 °F 63% 30.20 in 10.0 mi Calm Calm - N/A   Clear
3:15 AM 21.2 °F 14.9 °F 12.2 °F 68% 30.20 in 10.0 mi SE 4.6 mph - N/A   Clear
3:35 AM 21.2 °F 16.4 °F 12.2 °F 68% 30.20 in 10.0 mi ESE 3.5 mph - N/A Thunderstorm Thunderstorm
3:55 AM 21.2 °F 16.4 °F 12.2 °F 68% 30.20 in 10.0 mi SE 3.5 mph - N/A Thunderstorm Clear
4:15 AM 19.4 °F - 12.2 °F 74% 30.20 in 10.0 mi Calm Calm - N/A   Clear
4:35 AM 21.2 °F - 12.2 °F 68% 30.20 in 10.0 mi Calm Calm - N/A   Clear
4:55 AM 21.2 °F - 12.2 °F 68% 30.20 in 10.0 mi Calm Calm - N/A   Clear
5:15 AM 19.4 °F 12.8 °F 12.2 °F 74% 30.22 in 10.0 mi South 4.6 mph - N/A   Clear
5:35 AM 21.2 °F - 12.2 °F 68% 30.22 in 10.0 mi Calm Calm - N/A   Clear
5:55 AM 19.4 °F 14.3 °F 12.2 °F 74% 30.23 in 10.0 mi ESE 3.5 mph - N/A   Clear
6:15 AM 21.2 °F - 12.2 °F 68% 30.23 in 10.0 mi Calm Calm - N/A   Clear
6:35 AM 19.4 °F 14.3 °F 12.2 °F 74% 30.24 in 10.0 mi ESE 3.5 mph - N/A   Clear
6:55 AM 17.6 °F - 12.2 °F 79% 30.24 in 10.0 mi Calm Calm - N/A   Clear
7:15 AM 17.6 °F - 12.2 °F 79% 30.25 in 10.0 mi Calm Calm - N/A   Clear
7:35 AM 19.4 °F - 12.2 °F 74% 30.25 in 10.0 mi Calm Calm - N/A   Clear
7:55 AM 19.4 °F - 14.0 °F 80% 30.26 in 10.0 mi Calm Calm - N/A   Clear
8:15 AM 23.0 °F - 17.6 °F 80% 30.26 in 10.0 mi Calm Calm - N/A   Clear
8:35 AM 26.6 °F - 19.4 °F 74% 30.27 in 10.0 mi Calm Calm - N/A   Clear
8:55 AM 28.4 °F - 19.4 °F 69% 30.26 in 10.0 mi Calm Calm - N/A   Clear
9:15 AM 30.2 °F - 19.4 °F 64% 30.27 in 10.0 mi Calm Calm - N/A   Clear
9:35 AM 32.0 °F - 17.6 °F 55% 30.27 in 10.0 mi Calm Calm - N/A Thunderstorm Clear
9:55 AM 32.0 °F - 17.6 °F 55% 30.27 in 10.0 mi Calm Calm - N/A   Clear
10:15 AM 35.6 °F - 15.8 °F 44% 30.27 in 10.0 mi Calm Calm - N/A   Clear
10:35 AM 37.4 °F - 14.0 °F 38% 30.27 in 10.0 mi Calm Calm - N/A   Clear
10:55 AM 41.0 °F - 14.0 °F 33% 30.27 in 10.0 mi Calm Calm - N/A   Clear
11:15 AM 42.8 °F - 17.6 °F 36% 30.27 in 10.0 mi Calm Calm - N/A   Clear
11:35 AM 44.6 °F - 17.6 °F 34% 30.27 in 10.0 mi Calm Calm - N/A   Clear
11:55 AM 48.2 °F - 14.0 °F 25% 30.27 in 10.0 mi Calm Calm - N/A   Clear
12:15 PM 48.2 °F - 12.2 °F 24% 30.27 in 10.0 mi Calm Calm - N/A   Clear
12:35 PM 50.0 °F - 14.0 °F 24% 30.27 in 10.0 mi NW 3.5 mph - N/A   Clear
12:55 PM 51.8 °F - 12.2 °F 21% 30.27 in 10.0 mi Calm Calm - N/A   Clear
1:15 PM 51.8 °F - 12.2 °F 21% 30.26 in 10.0 mi South 3.5 mph - N/A   Clear
1:35 PM 53.6 °F - 12.2 °F 19% 30.25 in 10.0 mi Calm Calm - N/A   Clear
1:55 PM 55.4 °F - 12.2 °F 18% 30.24 in 10.0 mi Calm Calm - N/A   Clear
2:15 PM 55.4 °F - 12.2 °F 18% 30.24 in 10.0 mi Calm Calm - N/A   Clear
2:35 PM 55.4 °F - 12.2 °F 18% 30.23 in 10.0 mi Calm Calm - N/A   Clear
2:55 PM 57.2 °F - 14.0 °F 18% 30.22 in 10.0 mi West 3.5 mph 17.3 mph N/A   Clear
3:15 PM 57.2 °F - 12.2 °F 17% 30.21 in 10.0 mi Calm Calm - N/A   Clear
3:35 PM 59.0 °F - 14.0 °F 17% 30.21 in 10.0 mi WSW 13.8 mph 19.6 mph N/A   Clear
3:55 PM 57.2 °F - 15.8 °F 20% 30.21 in 10.0 mi SW 10.4 mph 20.7 mph N/A   Clear
4:15 PM 57.2 °F - 15.8 °F 20% 30.21 in 10.0 mi WSW 16.1 mph 20.7 mph N/A   Clear
4:35 PM 57.2 °F - 14.0 °F 18% 30.21 in 10.0 mi SW 15.0 mph 24.2 mph N/A   Clear
4:55 PM 57.2 °F - 14.0 °F 18% 30.21 in 10.0 mi WSW 11.5 mph - N/A   Clear
5:15 PM 57.2 °F - 10.4 °F 16% 30.21 in 10.0 mi West 13.8 mph - N/A   Clear
5:35 PM 57.2 °F - 10.4 °F 16% 30.21 in 10.0 mi West 13.8 mph 20.7 mph N/A   Clear
5:55 PM 55.4 °F - 10.4 °F 17% 30.21 in 10.0 mi WNW 9.2 mph - N/A   Clear
6:15 PM 55.4 °F - 10.4 °F 17% 30.21 in 10.0 mi NW 10.4 mph - N/A   Clear
6:35 PM 55.4 °F - 10.4 °F 17% 30.21 in 10.0 mi WNW 9.2 mph - N/A   Clear
6:55 PM 53.6 °F - 10.4 °F 18% 30.20 in 10.0 mi NNW 3.5 mph - N/A   Clear
7:15 PM 51.8 °F - 14.0 °F 22% 30.20 in 10.0 mi Calm Calm - N/A   Clear
7:35 PM 48.2 °F - 15.8 °F 27% 30.20 in 10.0 mi Calm Calm - N/A   Clear
7:55 PM 46.4 °F - 14.0 °F 27% 30.20 in 10.0 mi Calm Calm - N/A   Clear
8:15 PM 41.0 °F - 14.0 °F 33% 30.21 in 10.0 mi Calm Calm - N/A   Clear
8:35 PM 41.0 °F - 14.0 °F 33% 30.21 in 10.0 mi Calm Calm - N/A   Clear
8:55 PM 35.6 °F 30.7 °F 15.8 °F 44% 30.21 in 10.0 mi ENE 5.8 mph - N/A   Clear
9:15 PM 41.0 °F - 14.0 °F 33% 30.22 in 10.0 mi Calm Calm - N/A   Clear
9:35 PM 39.2 °F - 14.0 °F 36% 30.22 in 10.0 mi Calm Calm - N/A   Clear
9:55 PM 33.8 °F - 15.8 °F 48% 30.23 in 10.0 mi Calm Calm - N/A   Clear
10:15 PM 32.0 °F 28.7 °F 17.6 °F 55% 30.22 in 7.0 mi ESE 3.5 mph - N/A   Clear
10:35 PM 33.8 °F - 15.8 °F 48% 30.23 in 10.0 mi Calm Calm - N/A   Clear
10:55 PM 30.2 °F - 17.6 °F 60% 30.22 in 10.0 mi Calm Calm - N/A   Clear
11:15 PM 30.2 °F 26.7 °F 17.6 °F 60% 30.22 in 10.0 mi SE 3.5 mph - N/A   Clear
11:35 PM 30.2 °F 26.7 °F 17.6 °F 60% 30.22 in 10.0 mi East 3.5 mph - N/A   Clear
11:55 PM 30.2 °F 24.3 °F 17.6 °F 60% 30.22 in 10.0 mi ESE 5.8 mph - N/A   Clear